Time,TemperatureF,DewpointF,PressureIn,WindDirection,WindDirectionDegrees,WindSpeedMPH,WindSpeedGustMPH,Humidity,HourlyPrecipIn,Conditions,Clouds,dailyrainin,SoftwareType,DateUTC
2013-06-23 00:01:00,68.7,56.5,29.00,North,-999,-999.0,-999.0,65,0.00,,,0.00,WSDL version 420,2013-06-23 04:01:00,
2013-06-23 00:03:00,68.7,56.3,29.00,North,-999,-999.0,-999.0,64,0.00,,,0.00,WSDL version 420,2013-06-23 04:03:00,
2013-06-23 00:05:00,68.6,56.2,29.00,North,-999,-999.0,-999.0,65,0.00,,,0.00,WSDL version 420,2013-06-23 04:05:00,
2013-06-23 00:07:00,68.5,56.2,29.00,North,-999,-999.0,-999.0,65,0.00,,,0.00,WSDL version 420,2013-06-23 04:07:00,
2013-06-23 00:09:00,68.4,56.2,29.00,North,-999,-999.0,-999.0,65,0.00,,,0.00,WSDL version 420,2013-06-23 04:09:00,
2013-06-23 00:11:00,68.3,56.1,29.00,South,180,0.0,0.0,65,0.00,,,0.00,WSDL version 420,2013-06-23 04:11:00,
2013-06-23 00:13:00,68.3,56.1,29.00,South,180,0.0,0.0,65,0.00,,,0.00,WSDL version 420,2013-06-23 04:13:00,
2013-06-23 00:15:00,68.2,56.1,29.00,North,-999,-999.0,-999.0,66,0.00,,,0.00,WSDL version 420,2013-06-23 04:15:00,
2013-06-23 00:21:00,68.2,56.4,29.03,North,-999,-999.0,-999.0,66,0.00,,,0.00,WSDL version 420,2013-06-23 04:21:00,
2013-06-23 00:23:00,68.3,56.5,29.03,North,-999,-999.0,-999.0,66,0.00,,,0.00,WSDL version 420,2013-06-23 04:23:00,
2013-06-23 00:25:00,68.4,56.6,29.03,South,180,0.0,0.0,66,0.00,,,0.00,WSDL version 420,2013-06-23 04:25:00,
2013-06-23 00:29:00,68.5,56.7,29.03,South,180,0.0,0.0,66,0.00,,,0.00,WSDL version 420,2013-06-23 04:29:00,
2013-06-23 00:31:00,68.5,56.7,29.03,South,180,0.0,0.0,66,0.00,,,0.00,WSDL version 420,2013-06-23 04:31:00,
2013-06-23 00:33:00,68.5,56.7,29.03,South,180,0.0,0.0,66,0.00,,,0.00,WSDL version 420,2013-06-23 04:33:00,
2013-06-23 00:37:00,68.5,56.7,29.00,South,180,0.0,0.0,66,0.00,,,0.00,WSDL version 420,2013-06-23 04:37:00,
2013-06-23 00:41:00,68.5,56.7,29.00,South,180,0.0,0.0,66,0.00,,,0.00,WSDL version 420,2013-06-23 04:41:00,
2013-06-23 00:43:00,68.5,56.7,29.00,South,180,0.0,0.0,66,0.00,,,0.00,WSDL version 420,2013-06-23 04:43:00,
2013-06-23 00:45:00,68.5,56.7,29.00,South,180,0.0,0.0,66,0.00,,,0.00,WSDL version 420,2013-06-23 04:45:00,
2013-06-23 00:47:00,68.5,56.7,29.00,North,0,0.0,0.0,66,0.00,,,0.00,WSDL version 420,2013-06-23 04:47:00,
2013-06-23 00:53:00,68.4,57.0,29.00,North,-999,-999.0,-999.0,67,0.00,,,0.00,WSDL version 420,2013-06-23 04:53:00,
2013-06-23 00:55:00,68.4,57.0,29.00,North,-999,-999.0,-999.0,67,0.00,,,0.00,WSDL version 420,2013-06-23 04:55:00,
2013-06-23 00:57:00,68.4,57.0,29.00,South,180,0.0,0.0,67,0.00,,,0.00,WSDL version 420,2013-06-23 04:57:00,
2013-06-23 01:03:00,68.4,57.0,29.00,South,180,0.0,0.0,67,0.00,,,0.00,WSDL version 420,2013-06-23 05:03:00,
2013-06-23 01:05:00,68.4,57.0,29.00,South,180,0.0,0.0,67,0.00,,,0.00,WSDL version 420,2013-06-23 05:05:00,
2013-06-23 01:09:00,68.3,56.8,29.00,South,180,0.0,0.0,66,0.00,,,0.00,WSDL version 420,2013-06-23 05:09:00,
2013-06-23 01:11:00,68.2,56.6,29.00,North,-999,-999.0,-999.0,67,0.00,,,0.00,WSDL version 420,2013-06-23 05:11:00,
2013-06-23 01:13:00,68.1,56.5,29.00,North,-999,-999.0,-999.0,67,0.00,,,0.00,WSDL version 420,2013-06-23 05:13:00,
2013-06-23 01:17:00,67.9,56.5,29.00,South,180,0.0,0.0,67,0.00,,,0.00,WSDL version 420,2013-06-23 05:17:00,
2013-06-23 01:19:00,67.8,56.5,29.00,South,180,0.0,0.0,67,0.00,,,0.00,WSDL version 420,2013-06-23 05:19:00,
2013-06-23 01:21:00,67.8,56.4,29.00,North,0,0.0,0.0,67,0.00,,,0.00,WSDL version 420,2013-06-23 05:21:00,
2013-06-23 01:25:00,67.6,56.5,29.00,North,-999,-999.0,-999.0,68,0.00,,,0.00,WSDL version 420,2013-06-23 05:25:00,
2013-06-23 01:27:00,67.5,56.6,29.00,North,-999,-999.0,-999.0,68,0.00,,,0.00,WSDL version 420,2013-06-23 05:27:00,
2013-06-23 01:29:00,67.4,56.6,29.00,NW,315,0.0,0.0,69,0.00,,,0.00,WSDL version 420,2013-06-23 05:29:00,
2013-06-23 01:35:00,67.4,56.9,29.00,North,-999,-999.0,-999.0,69,0.00,,,0.00,WSDL version 420,2013-06-23 05:35:00,
2013-06-23 01:37:00,67.5,56.9,29.00,North,-999,-999.0,-999.0,69,0.00,,,0.00,WSDL version 420,2013-06-23 05:37:00,
2013-06-23 01:43:00,67.6,57.1,29.00,North,0,0.0,0.0,69,0.00,,,0.00,WSDL version 420,2013-06-23 05:43:00,
2013-06-23 01:45:00,67.6,57.1,29.00,North,-999,-999.0,-999.0,69,0.00,,,0.00,WSDL version 420,2013-06-23 05:45:00,
2013-06-23 01:47:00,67.6,57.1,29.00,South,180,0.0,0.0,69,0.00,,,0.00,WSDL version 420,2013-06-23 05:47:00,
2013-06-23 01:51:00,67.6,57.1,29.00,South,180,0.0,0.0,69,0.00,,,0.00,WSDL version 420,2013-06-23 05:51:00,
2013-06-23 01:53:00,67.5,57.0,29.00,South,180,0.0,0.0,69,0.00,,,0.00,WSDL version 420,2013-06-23 05:53:00,
2013-06-23 01:55:00,67.4,56.9,29.00,North,0,0.0,0.0,69,0.00,,,0.00,WSDL version 420,2013-06-23 05:55:00,
2013-06-23 01:57:00,67.3,56.8,29.00,North,-999,-999.0,-999.0,69,0.00,,,0.00,WSDL version 420,2013-06-23 05:57:00,
2013-06-23 02:01:00,67.4,56.9,29.00,North,0,0.0,0.0,69,0.00,,,0.00,WSDL version 420,2013-06-23 06:01:00,
2013-06-23 02:03:00,67.5,56.9,29.00,South,180,0.0,0.0,69,0.00,,,0.00,WSDL version 420,2013-06-23 06:03:00,
2013-06-23 02:05:00,67.5,56.9,29.00,South,180,0.0,0.0,69,0.00,,,0.00,WSDL version 420,2013-06-23 06:05:00,
2013-06-23 02:09:00,67.3,56.8,29.00,South,180,0.0,0.0,69,0.00,,,0.00,WSDL version 420,2013-06-23 06:09:00,
2013-06-23 02:11:00,67.2,56.7,29.00,North,0,0.0,0.0,69,0.00,,,0.00,WSDL version 420,2013-06-23 06:11:00,
2013-06-23 02:15:00,67.1,56.6,29.00,North,-999,-999.0,-999.0,69,0.00,,,0.00,WSDL version 420,2013-06-23 06:15:00,
2013-06-23 02:17:00,67.1,56.6,29.00,South,180,0.0,0.0,69,0.00,,,0.00,WSDL version 420,2013-06-23 06:17:00,
2013-06-23 02:19:00,67.1,56.8,29.00,North,-999,-999.0,-999.0,70,0.00,,,0.00,WSDL version 420,2013-06-23 06:19:00,
2013-06-23 02:23:00,67.1,57.0,28.97,South,180,0.0,0.0,70,0.00,,,0.00,WSDL version 420,2013-06-23 06:23:00,
2013-06-23 02:25:00,67.2,57.1,28.97,South,180,0.0,0.0,70,0.00,,,0.00,WSDL version 420,2013-06-23 06:25:00,
2013-06-23 02:27:00,67.3,57.2,28.97,South,180,0.0,0.0,70,0.00,,,0.00,WSDL version 420,2013-06-23 06:27:00,
2013-06-23 02:29:00,67.3,57.2,28.97,North,0,0.0,0.0,70,0.00,,,0.00,WSDL version 420,2013-06-23 06:29:00,
2013-06-23 02:33:00,67.5,57.3,28.97,South,180,0.0,0.0,70,0.00,,,0.00,WSDL version 420,2013-06-23 06:33:00,
2013-06-23 02:35:00,67.5,57.3,28.97,North,0,0.0,0.0,70,0.00,,,0.00,WSDL version 420,2013-06-23 06:35:00,
2013-06-23 02:41:00,67.5,57.3,28.97,North,0,0.0,0.0,70,0.00,,,0.00,WSDL version 420,2013-06-23 06:41:00,
2013-06-23 02:43:00,67.5,57.3,28.97,North,-999,-999.0,-999.0,70,0.00,,,0.00,WSDL version 420,2013-06-23 06:43:00,
2013-06-23 02:45:00,67.5,57.3,28.97,South,180,0.0,0.0,70,0.00,,,0.00,WSDL version 420,2013-06-23 06:45:00,
2013-06-23 02:47:00,67.5,57.3,28.97,South,180,0.0,0.0,70,0.00,,,0.00,WSDL version 420,2013-06-23 06:47:00,
2013-06-23 02:49:00,67.5,57.3,28.97,North,0,0.0,0.0,70,0.00,,,0.00,WSDL version 420,2013-06-23 06:49:00,
2013-06-23 02:51:00,67.5,57.3,28.97,South,180,0.0,0.0,70,0.00,,,0.00,WSDL version 420,2013-06-23 06:51:00,
2013-06-23 02:53:00,67.5,57.3,28.97,North,-999,-999.0,-999.0,70,0.00,,,0.00,WSDL version 420,2013-06-23 06:53:00,
2013-06-23 02:55:00,67.5,57.4,28.97,South,180,0.0,0.0,70,0.00,,,0.00,WSDL version 420,2013-06-23 06:55:00,
2013-06-23 02:57:00,67.5,57.4,28.97,South,180,0.0,0.0,70,0.00,,,0.00,WSDL version 420,2013-06-23 06:57:00,
2013-06-23 02:59:00,67.5,57.3,28.97,South,180,0.0,0.0,70,0.00,,,0.00,WSDL version 420,2013-06-23 06:59:00,
2013-06-23 03:01:00,67.4,57.3,28.97,South,180,0.0,0.0,70,0.00,,,0.00,WSDL version 420,2013-06-23 07:01:00,
2013-06-23 03:07:00,67.1,57.0,28.97,South,180,0.0,0.0,70,0.00,,,0.00,WSDL version 420,2013-06-23 07:07:00,
2013-06-23 03:09:00,67.0,56.9,28.97,North,-999,-999.0,-999.0,70,0.00,,,0.00,WSDL version 420,2013-06-23 07:09:00,
2013-06-23 03:11:00,66.9,56.8,28.97,North,-999,-999.0,-999.0,70,0.00,,,0.00,WSDL version 420,2013-06-23 07:11:00,
2013-06-23 03:17:00,66.9,56.8,28.97,North,-999,-999.0,-999.0,70,0.00,,,0.00,WSDL version 420,2013-06-23 07:17:00,
2013-06-23 03:19:00,66.9,56.8,28.97,South,180,0.0,0.0,70,0.00,,,0.00,WSDL version 420,2013-06-23 07:19:00,
2013-06-23 03:21:00,66.9,56.8,28.97,South,180,0.0,0.0,70,0.00,,,0.00,WSDL version 420,2013-06-23 07:21:00,
2013-06-23 03:25:00,66.8,56.7,28.97,South,180,0.0,0.0,70,0.00,,,0.00,WSDL version 420,2013-06-23 07:25:00,
2013-06-23 03:29:00,66.7,56.9,28.97,South,180,0.0,0.0,71,0.00,,,0.00,WSDL version 420,2013-06-23 07:29:00,
2013-06-23 03:35:00,66.9,57.2,28.97,North,-999,-999.0,-999.0,71,0.00,,,0.00,WSDL version 420,2013-06-23 07:35:00,
2013-06-23 03:37:00,67.0,57.3,28.97,South,180,0.0,0.0,71,0.00,,,0.00,WSDL version 420,2013-06-23 07:37:00,
2013-06-23 03:41:00,67.1,57.4,28.97,North,-999,-999.0,-999.0,71,0.00,,,0.00,WSDL version 420,2013-06-23 07:41:00,
2013-06-23 03:43:00,67.1,57.4,28.97,South,180,0.0,0.0,71,0.00,,,0.00,WSDL version 420,2013-06-23 07:43:00,
2013-06-23 03:47:00,67.1,57.4,28.97,South,180,0.0,0.0,71,0.00,,,0.00,WSDL version 420,2013-06-23 07:47:00,
2013-06-23 03:49:00,67.2,57.5,28.97,North,-999,-999.0,-999.0,71,0.00,,,0.00,WSDL version 420,2013-06-23 07:49:00,
2013-06-23 03:51:00,67.3,57.6,28.97,North,-999,-999.0,-999.0,71,0.00,,,0.00,WSDL version 420,2013-06-23 07:51:00,
2013-06-23 03:55:00,67.3,57.6,28.97,North,-999,-999.0,-999.0,71,0.00,,,0.00,WSDL version 420,2013-06-23 07:55:00,
2013-06-23 03:59:00,67.3,57.6,28.97,South,180,0.0,0.0,71,0.00,,,0.00,WSDL version 420,2013-06-23 07:59:00,
2013-06-23 04:01:00,67.3,57.6,28.97,South,180,0.0,0.0,71,0.00,,,0.00,WSDL version 420,2013-06-23 08:01:00,
2013-06-23 04:03:00,67.3,57.6,28.97,South,180,0.0,0.0,71,0.00,,,0.00,WSDL version 420,2013-06-23 08:03:00,
2013-06-23 04:05:00,67.3,57.6,28.97,South,180,0.0,0.0,71,0.00,,,0.00,WSDL version 420,2013-06-23 08:05:00,
2013-06-23 04:07:00,67.3,57.6,28.97,South,180,0.0,0.0,71,0.00,,,0.00,WSDL version 420,2013-06-23 08:07:00,
2013-06-23 04:11:00,67.1,57.4,28.97,South,180,0.0,0.0,71,0.00,,,0.00,WSDL version 420,2013-06-23 08:11:00,
2013-06-23 04:13:00,67.1,57.4,28.97,South,180,0.0,0.0,71,0.00,,,0.00,WSDL version 420,2013-06-23 08:13:00,
2013-06-23 04:15:00,67.1,57.4,28.97,South,180,0.0,0.0,71,0.00,,,0.00,WSDL version 420,2013-06-23 08:15:00,
2013-06-23 04:19:00,66.9,57.2,28.97,North,-999,-999.0,-999.0,71,0.00,,,0.00,WSDL version 420,2013-06-23 08:19:00,
2013-06-23 04:21:00,66.9,57.2,28.97,South,180,0.0,0.0,71,0.00,,,0.00,WSDL version 420,2013-06-23 08:21:00,
2013-06-23 04:23:00,66.9,57.2,28.97,North,0,0.0,0.0,71,0.00,,,0.00,WSDL version 420,2013-06-23 08:23:00,
2013-06-23 04:27:00,66.9,57.2,28.97,North,-999,-999.0,-999.0,71,0.00,,,0.00,WSDL version 420,2013-06-23 08:27:00,
2013-06-23 04:31:00,67.0,57.3,28.97,South,180,0.0,0.0,71,0.00,,,0.00,WSDL version 420,2013-06-23 08:31:00,
2013-06-23 04:33:00,67.1,57.4,28.97,North,-999,-999.0,-999.0,71,0.00,,,0.00,WSDL version 420,2013-06-23 08:33:00,
2013-06-23 04:35:00,67.0,57.3,28.97,North,-999,-999.0,-999.0,71,0.00,,,0.00,WSDL version 420,2013-06-23 08:35:00,
2013-06-23 04:37:00,66.9,57.2,28.97,North,-999,-999.0,-999.0,71,0.00,,,0.00,WSDL version 420,2013-06-23 08:37:00,
2013-06-23 04:39:00,66.9,57.2,28.97,North,-999,-999.0,-999.0,71,0.00,,,0.00,WSDL version 420,2013-06-23 08:39:00,
2013-06-23 04:41:00,66.9,57.3,28.97,South,180,0.0,0.0,72,0.00,,,0.00,WSDL version 420,2013-06-23 08:41:00,
2013-06-23 04:45:00,67.0,57.7,28.97,North,0,0.0,0.0,72,0.00,,,0.00,WSDL version 420,2013-06-23 08:45:00,
2013-06-23 04:51:00,66.9,57.3,28.97,South,180,0.0,0.0,71,0.00,,,0.00,WSDL version 420,2013-06-23 08:51:00,
2013-06-23 04:53:00,66.8,57.1,28.97,South,180,0.0,0.0,71,0.00,,,0.00,WSDL version 420,2013-06-23 08:53:00,
2013-06-23 04:55:00,66.7,57.0,28.97,South,180,0.0,0.0,71,0.00,,,0.00,WSDL version 420,2013-06-23 08:55:00,
2013-06-23 05:01:00,66.7,57.4,28.97,South,180,0.0,0.0,72,0.00,,,0.00,WSDL version 420,2013-06-23 09:01:00,
2013-06-23 05:03:00,66.7,57.4,28.97,North,-999,-999.0,-999.0,72,0.00,,,0.00,WSDL version 420,2013-06-23 09:03:00,
2013-06-23 05:07:00,66.7,57.4,28.97,North,-999,-999.0,-999.0,72,0.00,,,0.00,WSDL version 420,2013-06-23 09:07:00,
2013-06-23 05:09:00,66.7,57.4,28.97,South,180,0.0,0.0,72,0.00,,,0.00,WSDL version 420,2013-06-23 09:09:00,
2013-06-23 05:11:00,66.7,57.4,28.97,North,-999,-999.0,-999.0,72,0.00,,,0.00,WSDL version 420,2013-06-23 09:11:00,
2013-06-23 05:13:00,66.7,57.4,28.97,South,180,0.0,0.0,72,0.00,,,0.00,WSDL version 420,2013-06-23 09:13:00,
2013-06-23 05:19:00,66.7,57.4,28.97,South,180,0.0,0.0,72,0.00,,,0.00,WSDL version 420,2013-06-23 09:19:00,
2013-06-23 05:23:00,66.7,57.4,28.97,South,180,0.0,0.0,72,0.00,,,0.00,WSDL version 420,2013-06-23 09:23:00,
2013-06-23 05:25:00,66.7,57.4,28.97,North,-999,-999.0,-999.0,72,0.00,,,0.00,WSDL version 420,2013-06-23 09:25:00,
2013-06-23 05:31:00,66.7,57.4,28.97,North,-999,-999.0,-999.0,72,0.00,,,0.00,WSDL version 420,2013-06-23 09:31:00,
2013-06-23 05:33:00,66.7,57.4,28.97,North,-999,-999.0,-999.0,72,0.00,,,0.00,WSDL version 420,2013-06-23 09:33:00,
2013-06-23 05:35:00,66.7,57.4,28.97,North,-999,-999.0,-999.0,72,0.00,,,0.00,WSDL version 420,2013-06-23 09:35:00,
2013-06-23 05:39:00,66.7,57.4,28.97,South,180,0.0,0.0,72,0.00,,,0.00,WSDL version 420,2013-06-23 09:39:00,
2013-06-23 05:43:00,66.7,57.4,28.97,North,-999,-999.0,-999.0,72,0.00,,,0.00,WSDL version 420,2013-06-23 09:43:00,
2013-06-23 05:45:00,66.7,57.4,28.97,North,-999,-999.0,-999.0,72,0.00,,,0.00,WSDL version 420,2013-06-23 09:45:00,
2013-06-23 05:47:00,66.7,57.4,28.97,North,-999,-999.0,-999.0,72,0.00,,,0.00,WSDL version 420,2013-06-23 09:47:00,
2013-06-23 05:51:00,66.7,57.4,28.97,North,-999,-999.0,-999.0,72,0.00,,,0.00,WSDL version 420,2013-06-23 09:51:00,
2013-06-23 05:55:00,66.7,57.4,28.97,South,180,0.0,0.0,72,0.00,,,0.00,WSDL version 420,2013-06-23 09:55:00,
2013-06-23 05:57:00,66.7,57.4,28.97,South,180,0.0,0.0,72,0.00,,,0.00,WSDL version 420,2013-06-23 09:57:00,
2013-06-23 05:59:00,66.7,57.4,28.97,North,0,0.0,0.0,72,0.00,,,0.00,WSDL version 420,2013-06-23 09:59:00,
2013-06-23 06:03:00,66.7,57.4,28.97,North,-999,-999.0,-999.0,72,0.00,,,0.00,WSDL version 420,2013-06-23 10:03:00,
2013-06-23 06:05:00,66.7,57.4,28.97,North,-999,-999.0,-999.0,72,0.00,,,0.00,WSDL version 420,2013-06-23 10:05:00,
2013-06-23 06:07:00,66.7,57.4,28.97,South,180,0.0,0.0,72,0.00,,,0.00,WSDL version 420,2013-06-23 10:07:00,
2013-06-23 06:11:00,66.7,57.4,28.97,North,-999,-999.0,-999.0,72,0.00,,,0.00,WSDL version 420,2013-06-23 10:11:00,
2013-06-23 06:13:00,66.7,57.4,28.97,South,180,0.0,0.0,72,0.00,,,0.00,WSDL version 420,2013-06-23 10:13:00,
2013-06-23 06:17:00,66.7,57.4,28.97,South,180,0.0,0.0,72,0.00,,,0.00,WSDL version 420,2013-06-23 10:17:00,
2013-06-23 06:19:00,66.7,57.4,28.97,South,180,0.0,0.0,72,0.00,,,0.00,WSDL version 420,2013-06-23 10:19:00,
2013-06-23 06:21:00,66.7,57.4,28.97,South,180,0.0,0.0,72,0.00,,,0.00,WSDL version 420,2013-06-23 10:21:00,
2013-06-23 06:25:00,66.7,57.3,28.97,North,-999,-999.0,-999.0,72,0.00,,,0.00,WSDL version 420,2013-06-23 10:25:00,
2013-06-23 06:27:00,66.6,57.3,28.97,ESE,113,0.0,0.0,72,0.00,,,0.00,WSDL version 420,2013-06-23 10:27:00,
2013-06-23 06:31:00,66.7,57.6,28.97,ESE,113,0.0,0.0,73,0.00,,,0.00,WSDL version 420,2013-06-23 10:31:00,
2013-06-23 06:33:00,66.8,57.9,28.97,SSE,158,0.0,0.0,73,0.00,,,0.00,WSDL version 420,2013-06-23 10:33:00,
2013-06-23 06:37:00,67.0,58.0,29.00,North,-999,-999.0,-999.0,73,0.00,,,0.00,WSDL version 420,2013-06-23 10:37:00,
2013-06-23 06:39:00,67.0,58.1,29.00,South,180,0.0,0.0,73,0.00,,,0.00,WSDL version 420,2013-06-23 10:39:00,
2013-06-23 06:41:00,67.1,58.2,29.00,South,180,0.0,0.0,73,0.00,,,0.00,WSDL version 420,2013-06-23 10:41:00,
2013-06-23 06:45:00,67.2,58.3,29.00,South,180,0.0,0.0,73,0.00,,,0.00,WSDL version 420,2013-06-23 10:45:00,
2013-06-23 06:47:00,67.3,58.3,29.00,South,180,0.0,0.0,73,0.00,,,0.00,WSDL version 420,2013-06-23 10:47:00,
2013-06-23 06:49:00,67.3,58.3,29.00,South,180,0.0,0.0,73,0.00,,,0.00,WSDL version 420,2013-06-23 10:49:00,
2013-06-23 06:55:00,67.1,58.2,29.00,North,-999,-999.0,-999.0,73,0.00,,,0.00,WSDL version 420,2013-06-23 10:55:00,
2013-06-23 06:57:00,67.1,58.2,29.00,North,-999,-999.0,-999.0,73,0.00,,,0.00,WSDL version 420,2013-06-23 10:57:00,
2013-06-23 06:59:00,67.2,58.3,29.00,South,180,0.0,0.0,73,0.00,,,0.00,WSDL version 420,2013-06-23 10:59:00,
2013-06-23 07:05:00,67.3,58.3,29.00,South,180,0.0,0.0,73,0.00,,,0.00,WSDL version 420,2013-06-23 11:05:00,
2013-06-23 07:07:00,67.3,58.3,29.00,South,180,0.0,0.0,73,0.00,,,0.00,WSDL version 420,2013-06-23 11:07:00,
2013-06-23 07:09:00,67.3,58.3,29.00,South,180,0.0,0.0,73,0.00,,,0.00,WSDL version 420,2013-06-23 11:09:00,
2013-06-23 07:11:00,67.3,58.3,29.00,North,0,0.0,0.0,73,0.00,,,0.00,WSDL version 420,2013-06-23 11:11:00,
2013-06-23 07:15:00,67.3,58.3,29.00,North,0,0.0,0.0,73,0.00,,,0.00,WSDL version 420,2013-06-23 11:15:00,
2013-06-23 07:17:00,67.3,58.4,29.00,North,-999,-999.0,-999.0,73,0.00,,,0.00,WSDL version 420,2013-06-23 11:17:00,
2013-06-23 07:21:00,67.6,58.8,29.03,South,180,0.0,0.0,74,0.00,,,0.00,WSDL version 420,2013-06-23 11:21:00,
2013-06-23 07:23:00,67.7,59.0,29.03,North,-999,-999.0,-999.0,74,0.00,,,0.00,WSDL version 420,2013-06-23 11:23:00,
2013-06-23 07:25:00,67.8,59.2,29.03,South,180,0.0,0.0,74,0.00,,,0.00,WSDL version 420,2013-06-23 11:25:00,
2013-06-23 07:27:00,67.9,59.3,29.03,North,0,0.0,0.0,74,0.00,,,0.00,WSDL version 420,2013-06-23 11:27:00,
2013-06-23 07:29:00,68.1,59.5,29.03,South,180,0.0,0.0,74,0.00,,,0.00,WSDL version 420,2013-06-23 11:29:00,
2013-06-23 07:31:00,68.2,59.6,29.03,North,-999,-999.0,-999.0,74,0.00,,,0.00,WSDL version 420,2013-06-23 11:31:00,
2013-06-23 07:33:00,68.3,59.7,29.03,South,180,0.0,0.0,74,0.00,,,0.00,WSDL version 420,2013-06-23 11:33:00,
2013-06-23 07:37:00,68.5,59.8,29.03,South,180,0.0,0.0,74,0.00,,,0.00,WSDL version 420,2013-06-23 11:37:00,
2013-06-23 07:39:00,68.5,59.9,29.03,North,0,0.0,0.0,74,0.00,,,0.00,WSDL version 420,2013-06-23 11:39:00,
2013-06-23 07:41:00,68.6,60.0,29.03,South,180,0.0,0.0,74,0.00,,,0.00,WSDL version 420,2013-06-23 11:41:00,
2013-06-23 07:45:00,68.8,60.2,29.03,North,0,0.0,0.0,74,0.00,,,0.00,WSDL version 420,2013-06-23 11:45:00,
2013-06-23 07:47:00,68.8,60.2,29.03,South,180,0.0,0.0,74,0.00,,,0.00,WSDL version 420,2013-06-23 11:47:00,
2013-06-23 07:49:00,68.9,60.3,29.03,North,0,0.0,0.0,74,0.00,,,0.00,WSDL version 420,2013-06-23 11:49:00,
2013-06-23 07:51:00,68.9,60.3,29.03,North,-999,-999.0,-999.0,74,0.00,,,0.00,WSDL version 420,2013-06-23 11:51:00,
2013-06-23 07:53:00,69.0,60.4,29.03,North,-999,-999.0,-999.0,74,0.00,,,0.00,WSDL version 420,2013-06-23 11:53:00,
2013-06-23 07:55:00,69.1,60.4,29.03,North,-999,-999.0,-999.0,73,0.00,,,0.00,WSDL version 420,2013-06-23 11:55:00,
2013-06-23 07:57:00,69.2,60.3,29.03,South,180,0.0,0.0,73,0.00,,,0.00,WSDL version 420,2013-06-23 11:57:00,
2013-06-23 08:01:00,69.3,60.2,29.03,North,-999,-999.0,-999.0,73,0.00,,,0.00,WSDL version 420,2013-06-23 12:01:00,
2013-06-23 08:07:00,69.4,60.4,29.03,North,-999,-999.0,-999.0,73,0.00,,,0.00,WSDL version 420,2013-06-23 12:07:00,
2013-06-23 08:09:00,69.4,60.4,29.03,SSE,158,0.0,0.0,73,0.00,,,0.00,WSDL version 420,2013-06-23 12:09:00,
2013-06-23 08:11:00,69.5,60.4,29.03,SSE,158,0.0,0.0,73,0.00,,,0.00,WSDL version 420,2013-06-23 12:11:00,
2013-06-23 08:15:00,69.7,60.6,29.03,SSE,158,0.0,0.0,73,0.00,,,0.00,WSDL version 420,2013-06-23 12:15:00,
2013-06-23 08:17:00,69.7,60.7,29.03,SSE,158,0.0,0.0,73,0.00,,,0.00,WSDL version 420,2013-06-23 12:17:00,
2013-06-23 08:19:00,69.8,60.8,29.03,SSE,158,0.0,0.0,73,0.00,,,0.00,WSDL version 420,2013-06-23 12:19:00,
2013-06-23 08:21:00,69.9,60.9,29.03,SSE,158,0.0,0.0,73,0.00,,,0.00,WSDL version 420,2013-06-23 12:21:00,
2013-06-23 08:27:00,70.2,60.9,29.03,SSE,158,0.0,0.0,72,0.00,,,0.00,WSDL version 420,2013-06-23 12:27:00,
2013-06-23 08:29:00,70.2,60.7,29.03,SSE,158,0.0,0.0,72,0.00,,,0.00,WSDL version 420,2013-06-23 12:29:00,
2013-06-23 08:33:00,70.3,60.8,29.03,SSE,158,0.0,0.0,72,0.00,,,0.00,WSDL version 420,2013-06-23 12:33:00,
2013-06-23 08:35:00,70.4,61.0,29.06,SSE,158,0.0,0.0,72,0.00,,,0.00,WSDL version 420,2013-06-23 12:35:00,
2013-06-23 08:41:00,70.6,61.5,29.06,SSE,158,0.0,0.0,73,0.00,,,0.00,WSDL version 420,2013-06-23 12:41:00,
2013-06-23 08:43:00,70.7,61.7,29.06,SSE,158,0.0,0.0,73,0.00,,,0.00,WSDL version 420,2013-06-23 12:43:00,
2013-06-23 08:45:00,70.9,61.8,29.06,SSE,158,0.0,0.0,73,0.00,,,0.00,WSDL version 420,2013-06-23 12:45:00,
2013-06-23 08:49:00,71.1,62.0,29.06,SSE,158,0.0,0.0,73,0.00,,,0.00,WSDL version 420,2013-06-23 12:49:00,
2013-06-23 08:53:00,71.2,62.1,29.06,SE,135,0.0,0.0,73,0.00,,,0.00,WSDL version 420,2013-06-23 12:53:00,
2013-06-23 08:55:00,71.3,62.2,29.06,SE,135,0.0,0.0,73,0.00,,,0.00,WSDL version 420,2013-06-23 12:55:00,
2013-06-23 08:57:00,71.5,62.3,29.06,SE,146,0.0,0.0,72,0.00,,,0.00,WSDL version 420,2013-06-23 12:57:00,
2013-06-23 09:01:00,71.6,62.1,29.06,South,180,0.0,0.0,72,0.00,,,0.00,WSDL version 420,2013-06-23 13:01:00,
2013-06-23 09:03:00,71.7,62.2,29.06,South,180,0.0,0.0,72,0.00,,,0.00,WSDL version 420,2013-06-23 13:03:00,
2013-06-23 09:05:00,71.9,62.3,29.06,North,-999,-999.0,-999.0,72,0.00,,,0.00,WSDL version 420,2013-06-23 13:05:00,
2013-06-23 09:07:00,72.0,62.5,29.06,North,-999,-999.0,-999.0,72,0.00,,,0.00,WSDL version 420,2013-06-23 13:07:00,
2013-06-23 09:09:00,72.1,62.6,29.06,NNE,23,0.0,0.0,72,0.00,,,0.00,WSDL version 420,2013-06-23 13:09:00,
2013-06-23 09:13:00,72.4,62.8,29.06,North,-999,-999.0,-999.0,72,0.00,,,0.00,WSDL version 420,2013-06-23 13:13:00,
2013-06-23 09:21:00,73.0,63.4,29.06,North,-999,-999.0,-999.0,72,0.00,,,0.00,WSDL version 420,2013-06-23 13:21:00,
2013-06-23 09:23:00,73.0,63.2,29.06,NNE,23,0.0,0.0,71,0.00,,,0.00,WSDL version 420,2013-06-23 13:23:00,
2013-06-23 09:25:00,73.0,63.2,29.06,NNE,23,0.0,0.0,71,0.00,,,0.00,WSDL version 420,2013-06-23 13:25:00,
2013-06-23 09:27:00,73.0,63.1,29.06,NNE,23,0.0,0.0,71,0.00,,,0.00,WSDL version 420,2013-06-23 13:27:00,
2013-06-23 09:31:00,73.2,63.2,29.06,North,-999,-999.0,-999.0,71,0.00,,,0.00,WSDL version 420,2013-06-23 13:31:00,
2013-06-23 09:33:00,73.3,63.1,29.06,South,180,0.0,0.0,70,0.00,,,0.00,WSDL version 420,2013-06-23 13:33:00,
2013-06-23 09:37:00,73.4,63.0,29.09,SSE,158,0.0,0.0,70,0.00,,,0.00,WSDL version 420,2013-06-23 13:37:00,
2013-06-23 09:39:00,73.4,63.0,29.09,SSE,158,0.0,0.0,70,0.00,,,0.00,WSDL version 420,2013-06-23 13:39:00,
2013-06-23 09:41:00,73.4,63.0,29.09,North,-999,-999.0,-999.0,70,0.00,,,0.00,WSDL version 420,2013-06-23 13:41:00,
2013-06-23 09:43:00,73.4,63.0,29.09,SSE,158,0.0,0.0,70,0.00,,,0.00,WSDL version 420,2013-06-23 13:43:00,
2013-06-23 09:45:00,73.4,63.0,29.09,SSE,158,0.0,0.0,70,0.00,,,0.00,WSDL version 420,2013-06-23 13:45:00,
2013-06-23 09:51:00,73.3,63.2,29.06,SSE,158,0.0,0.0,71,0.00,,,0.00,WSDL version 420,2013-06-23 13:51:00,
2013-06-23 09:57:00,73.2,63.3,29.06,SSE,158,0.0,0.0,71,0.00,,,0.00,WSDL version 420,2013-06-23 13:57:00,
2013-06-23 09:59:00,73.2,63.4,29.06,SSE,158,0.0,0.0,72,0.00,,,0.00,WSDL version 420,2013-06-23 13:59:00,
2013-06-23 10:01:00,73.2,63.6,29.06,North,-999,-999.0,-999.0,72,0.00,,,0.00,WSDL version 420,2013-06-23 14:01:00,
2013-06-23 10:03:00,73.2,63.6,29.06,North,-999,-999.0,-999.0,72,0.00,,,0.00,WSDL version 420,2013-06-23 14:03:00,
2013-06-23 10:07:00,73.0,63.5,29.09,SSE,158,0.0,0.0,72,0.00,,,0.00,WSDL version 420,2013-06-23 14:07:00,
2013-06-23 10:09:00,73.0,63.5,29.09,SSE,158,0.0,0.0,72,0.00,,,0.00,WSDL version 420,2013-06-23 14:09:00,
2013-06-23 10:11:00,73.0,63.5,29.09,SSE,158,0.0,0.0,72,0.00,,,0.00,WSDL version 420,2013-06-23 14:11:00,
2013-06-23 10:15:00,73.2,63.9,29.09,SSE,158,0.0,0.0,73,0.00,,,0.00,WSDL version 420,2013-06-23 14:15:00,
2013-06-23 10:17:00,73.3,64.2,29.09,North,-999,-999.0,-999.0,73,0.00,,,0.00,WSDL version 420,2013-06-23 14:17:00,
2013-06-23 10:19:00,73.4,64.3,29.09,North,-999,-999.0,-999.0,73,0.00,,,0.00,WSDL version 420,2013-06-23 14:19:00,
2013-06-23 10:21:00,73.5,64.3,29.09,SSE,158,0.0,0.0,73,0.00,,,0.00,WSDL version 420,2013-06-23 14:21:00,
2013-06-23 10:25:00,73.4,64.3,29.09,SSE,158,0.0,0.0,73,0.00,,,0.00,WSDL version 420,2013-06-23 14:25:00,
2013-06-23 10:27:00,73.5,64.3,29.09,North,-999,-999.0,-999.0,73,0.00,,,0.00,WSDL version 420,2013-06-23 14:27:00,
2013-06-23 10:31:00,73.7,64.5,29.09,SSE,158,0.0,0.0,73,0.00,,,0.00,WSDL version 420,2013-06-23 14:31:00,
2013-06-23 10:33:00,73.8,64.6,29.09,North,0,0.0,0.0,73,0.00,,,0.00,WSDL version 420,2013-06-23 14:33:00,
2013-06-23 10:37:00,73.9,64.7,29.09,North,-999,-999.0,-999.0,73,0.00,,,0.00,WSDL version 420,2013-06-23 14:37:00,
2013-06-23 10:39:00,73.9,64.7,29.09,SSE,158,0.0,0.0,73,0.00,,,0.00,WSDL version 420,2013-06-23 14:39:00,
2013-06-23 10:41:00,73.9,64.7,29.09,North,-999,-999.0,-999.0,73,0.00,,,0.00,WSDL version 420,2013-06-23 14:41:00,
2013-06-23 10:43:00,73.9,64.6,29.09,SSE,158,0.0,0.0,72,0.00,,,0.00,WSDL version 420,2013-06-23 14:43:00,
2013-06-23 10:45:00,73.9,64.4,29.09,SSE,158,0.0,0.0,72,0.00,,,0.00,WSDL version 420,2013-06-23 14:45:00,
2013-06-23 10:47:00,73.9,64.4,29.09,North,0,0.0,0.0,73,0.00,,,0.00,WSDL version 420,2013-06-23 14:47:00,
2013-06-23 10:49:00,73.9,64.5,29.09,SSE,158,0.0,0.0,73,0.00,,,0.00,WSDL version 420,2013-06-23 14:49:00,
2013-06-23 10:53:00,74.2,65.0,29.09,SE,135,0.0,0.0,73,0.00,,,0.00,WSDL version 420,2013-06-23 14:53:00,
2013-06-23 10:55:00,74.5,65.3,29.09,SE,135,0.0,0.0,73,0.00,,,0.00,WSDL version 420,2013-06-23 14:55:00,
2013-06-23 10:57:00,74.7,65.5,29.09,SE,135,0.0,0.0,73,0.00,,,0.00,WSDL version 420,2013-06-23 14:57:00,
2013-06-23 11:05:00,75.7,66.2,29.09,SE,135,0.0,0.0,72,0.00,,,0.00,WSDL version 420,2013-06-23 15:05:00,
2013-06-23 11:07:00,76.0,66.6,29.09,SSW,203,0.0,0.0,73,0.00,,,0.00,WSDL version 420,2013-06-23 15:07:00,
2013-06-23 11:09:00,76.2,66.9,29.09,SSW,203,0.0,0.0,73,0.00,,,0.00,WSDL version 420,2013-06-23 15:09:00,
2013-06-23 11:13:00,76.5,67.0,29.09,East,90,0.0,0.0,72,0.00,,,0.00,WSDL version 420,2013-06-23 15:13:00,
2013-06-23 11:15:00,76.6,67.0,29.09,North,-999,-999.0,-999.0,72,0.00,,,0.00,WSDL version 420,2013-06-23 15:15:00,
2013-06-23 11:19:00,76.6,66.6,29.09,North,-999,-999.0,-999.0,71,0.00,,,0.00,WSDL version 420,2013-06-23 15:19:00,
2013-06-23 11:21:00,76.7,66.5,29.09,SSE,158,0.0,0.0,71,0.00,,,0.00,WSDL version 420,2013-06-23 15:21:00,
2013-06-23 11:23:00,76.7,66.5,29.09,North,-999,-999.0,-999.0,70,0.00,,,0.00,WSDL version 420,2013-06-23 15:23:00,
2013-06-23 11:27:00,77.0,66.4,29.09,East,90,0.0,0.0,69,0.00,,,0.00,WSDL version 420,2013-06-23 15:27:00,
2013-06-23 11:29:00,77.1,66.4,29.09,North,0,0.0,0.0,69,0.00,,,0.00,WSDL version 420,2013-06-23 15:29:00,
2013-06-23 11:31:00,77.2,66.2,29.09,South,180,0.0,0.0,69,0.00,,,0.00,WSDL version 420,2013-06-23 15:31:00,
2013-06-23 11:35:00,77.1,66.2,29.09,South,180,0.0,0.0,69,0.00,,,0.00,WSDL version 420,2013-06-23 15:35:00,
2013-06-23 11:37:00,77.1,66.1,29.09,North,-999,-999.0,-999.0,69,0.00,,,0.00,WSDL version 420,2013-06-23 15:37:00,
2013-06-23 11:39:00,77.0,66.1,29.09,North,-999,-999.0,-999.0,69,0.00,,,0.00,WSDL version 420,2013-06-23 15:39:00,
2013-06-23 11:43:00,77.0,66.1,29.09,North,-999,-999.0,-999.0,69,0.00,,,0.00,WSDL version 420,2013-06-23 15:43:00,
2013-06-23 11:47:00,77.0,66.1,29.09,North,-999,-999.0,-999.0,69,0.00,,,0.00,WSDL version 420,2013-06-23 15:47:00,
2013-06-23 11:51:00,77.0,65.7,29.09,North,-999,-999.0,-999.0,68,0.00,,,0.00,WSDL version 420,2013-06-23 15:51:00,
2013-06-23 11:53:00,77.0,65.5,29.09,North,-999,-999.0,-999.0,67,0.00,,,0.00,WSDL version 420,2013-06-23 15:53:00,
2013-06-23 11:57:00,77.1,65.7,29.09,North,-999,-999.0,-999.0,68,0.00,,,0.00,WSDL version 420,2013-06-23 15:57:00,
2013-06-23 11:59:00,77.2,65.7,29.09,South,180,0.0,0.0,67,0.00,,,0.00,WSDL version 420,2013-06-23 15:59:00,
2013-06-23 12:01:00,77.3,65.6,29.09,North,-999,-999.0,-999.0,67,0.00,,,0.00,WSDL version 420,2013-06-23 16:01:00,
2013-06-23 12:05:00,77.6,65.8,29.09,South,180,0.0,0.0,67,0.00,,,0.00,WSDL version 420,2013-06-23 16:05:00,
2013-06-23 12:07:00,77.9,66.0,29.09,South,180,0.0,0.0,66,0.00,,,0.00,WSDL version 420,2013-06-23 16:07:00,
2013-06-23 12:11:00,78.7,66.4,29.09,North,-999,-999.0,-999.0,66,0.00,,,0.00,WSDL version 420,2013-06-23 16:11:00,
2013-06-23 12:13:00,79.3,66.6,29.09,NE,45,0.0,0.0,64,0.00,,,0.00,WSDL version 420,2013-06-23 16:13:00,
2013-06-23 12:17:00,79.7,66.5,29.09,North,-999,-999.0,-999.0,64,0.00,,,0.00,WSDL version 420,2013-06-23 16:17:00,
2013-06-23 12:19:00,80.0,66.7,29.09,North,-999,-999.0,-999.0,64,0.00,,,0.00,WSDL version 420,2013-06-23 16:19:00,
2013-06-23 12:21:00,80.1,66.8,29.09,North,-999,-999.0,-999.0,63,0.00,,,0.00,WSDL version 420,2013-06-23 16:21:00,
2013-06-23 12:25:00,80.6,66.9,29.09,North,0,0.0,0.0,63,0.00,,,0.00,WSDL version 420,2013-06-23 16:25:00,
2013-06-23 12:27:00,81.0,66.9,29.09,SE,135,0.6,1.3,62,0.00,,,0.00,WSDL version 420,2013-06-23 16:27:00,
2013-06-23 12:31:00,81.5,67.2,29.09,SSW,203,0.0,1.3,62,0.00,,,0.00,WSDL version 420,2013-06-23 16:31:00,
2013-06-23 12:37:00,82.4,67.0,29.09,NW,315,0.0,1.3,59,0.00,,,0.00,WSDL version 420,2013-06-23 16:37:00,
2013-06-23 12:43:00,82.7,66.0,29.09,North,-999,-999.0,-999.0,55,0.00,,,0.00,WSDL version 420,2013-06-23 16:43:00,
2013-06-23 12:45:00,82.9,65.3,29.09,North,-999,-999.0,-999.0,54,0.00,,,0.00,WSDL version 420,2013-06-23 16:45:00,
2013-06-23 12:51:00,82.9,63.3,29.09,South,191,0.0,0.0,52,0.00,,,0.00,WSDL version 420,2013-06-23 16:51:00,
2013-06-23 12:53:00,82.9,63.3,29.09,NW,315,1.1,1.6,51,0.00,,,0.00,WSDL version 420,2013-06-23 16:53:00,
2013-06-23 12:55:00,82.9,63.1,29.09,North,-999,-999.0,-999.0,51,0.00,,,0.00,WSDL version 420,2013-06-23 16:55:00,
2013-06-23 12:57:00,82.9,62.6,29.09,North,-999,-999.0,-999.0,50,0.00,,,0.00,WSDL version 420,2013-06-23 16:57:00,
2013-06-23 12:59:00,83.1,62.9,29.09,North,-999,-999.0,-999.0,51,0.00,,,0.00,WSDL version 420,2013-06-23 16:59:00,
2013-06-23 13:07:00,83.4,62.6,29.09,North,-999,-999.0,-999.0,50,0.00,,,0.00,WSDL version 420,2013-06-23 17:07:00,
2013-06-23 13:09:00,83.4,62.5,29.09,North,-999,-999.0,-999.0,49,0.00,,,0.00,WSDL version 420,2013-06-23 17:09:00,
2013-06-23 13:13:00,82.8,61.9,29.09,SSW,203,0.9,3.1,49,0.00,,,0.00,WSDL version 420,2013-06-23 17:13:00,
2013-06-23 13:15:00,82.5,61.5,29.09,SSW,203,0.0,0.0,49,0.00,,,0.00,WSDL version 420,2013-06-23 17:15:00,
2013-06-23 13:17:00,82.5,61.1,29.09,SSW,203,0.0,0.0,47,0.00,,,0.00,WSDL version 420,2013-06-23 17:17:00,
2013-06-23 13:19:00,82.5,61.2,29.09,North,-999,-999.0,-999.0,48,0.00,,,0.00,WSDL version 420,2013-06-23 17:19:00,
2013-06-23 13:21:00,82.5,60.9,29.09,North,-999,-999.0,-999.0,48,0.00,,,0.00,WSDL version 420,2013-06-23 17:21:00,
2013-06-23 13:25:00,82.4,60.5,29.09,North,-999,-999.0,-999.0,48,0.00,,,0.00,WSDL version 420,2013-06-23 17:25:00,
2013-06-23 13:29:00,82.3,60.7,29.09,North,-999,-999.0,-999.0,48,0.00,,,0.00,WSDL version 420,2013-06-23 17:29:00,
2013-06-23 13:37:00,-999.0,-99.9,29.06,North,-999,-999.0,-999.0,-999,-99.99,,,-99.99,WSDL version 420,2013-06-23 17:37:00,
2013-06-23 13:43:00,84.5,62.1,29.06,North,-999,-999.0,-999.0,47,0.00,,,0.00,WSDL version 420,2013-06-23 17:43:00,
2013-06-23 13:45:00,84.5,61.7,29.06,West,270,0.0,0.0,46,0.00,,,0.00,WSDL version 420,2013-06-23 17:45:00,
2013-06-23 13:47:00,84.6,61.6,29.06,North,0,0.0,0.0,46,0.00,,,0.00,WSDL version 420,2013-06-23 17:47:00,
2013-06-23 13:49:00,84.6,61.3,29.06,West,270,0.0,0.0,45,0.00,,,0.00,WSDL version 420,2013-06-23 17:49:00,
2013-06-23 13:51:00,84.6,61.1,29.06,North,360,0.0,0.0,45,0.00,,,0.00,WSDL version 420,2013-06-23 17:51:00,
2013-06-23 13:53:00,84.6,61.1,29.06,North,-999,-999.0,-999.0,46,0.00,,,0.00,WSDL version 420,2013-06-23 17:53:00,
2013-06-23 13:59:00,83.4,60.3,29.06,North,-999,-999.0,-999.0,45,0.00,,,0.00,WSDL version 420,2013-06-23 17:59:00,
2013-06-23 14:01:00,83.2,60.0,29.06,North,-999,-999.0,-999.0,45,0.00,,,0.00,WSDL version 420,2013-06-23 18:01:00,
2013-06-23 14:03:00,83.3,59.8,29.06,WSW,248,0.0,0.0,45,0.00,,,0.00,WSDL version 420,2013-06-23 18:03:00,
2013-06-23 14:05:00,83.6,60.0,29.06,North,0,0.0,0.0,45,0.00,,,0.00,WSDL version 420,2013-06-23 18:05:00,
2013-06-23 14:09:00,84.2,60.4,29.06,ESE,113,0.9,1.1,45,0.00,,,0.00,WSDL version 420,2013-06-23 18:09:00,
2013-06-23 14:11:00,84.4,60.7,29.06,North,0,0.0,1.1,45,0.00,,,0.00,WSDL version 420,2013-06-23 18:11:00,
2013-06-23 14:17:00,85.0,61.0,29.06,North,-999,-999.0,-999.0,44,0.00,,,0.00,WSDL version 420,2013-06-23 18:17:00,
2013-06-23 14:21:00,85.2,60.7,29.06,North,-999,-999.0,-999.0,43,0.00,,,0.00,WSDL version 420,2013-06-23 18:21:00,
2013-06-23 14:23:00,85.3,60.5,29.06,North,-999,-999.0,-999.0,43,0.00,,,0.00,WSDL version 420,2013-06-23 18:23:00,
2013-06-23 14:27:00,84.9,60.0,29.06,North,-999,-999.0,-999.0,43,0.00,,,0.00,WSDL version 420,2013-06-23 18:27:00,
2013-06-23 14:29:00,84.7,59.5,29.06,East,90,1.6,0.0,42,0.00,,,0.00,WSDL version 420,2013-06-23 18:29:00,
2013-06-23 14:31:00,84.4,58.9,29.06,North,-999,-999.0,-999.0,42,0.00,,,0.00,WSDL version 420,2013-06-23 18:31:00,
2013-06-23 14:33:00,84.0,58.5,29.06,North,-999,-999.0,-999.0,42,0.00,,,0.00,WSDL version 420,2013-06-23 18:33:00,
2013-06-23 14:37:00,84.2,58.8,29.06,SE,135,1.7,3.8,42,0.00,,,0.00,WSDL version 420,2013-06-23 18:37:00,
2013-06-23 14:39:00,84.7,59.1,29.06,North,0,0.0,3.8,42,0.00,,,0.00,WSDL version 420,2013-06-23 18:39:00,
2013-06-23 14:41:00,85.0,59.2,29.06,East,90,0.0,3.8,41,0.00,,,0.00,WSDL version 420,2013-06-23 18:41:00,
2013-06-23 14:43:00,85.1,59.1,29.06,NE,56,0.7,3.8,41,0.00,,,0.00,WSDL version 420,2013-06-23 18:43:00,
2013-06-23 14:45:00,85.2,58.9,29.06,NE,45,0.0,3.8,41,0.00,,,0.00,WSDL version 420,2013-06-23 18:45:00,
2013-06-23 14:49:00,85.1,58.7,29.06,NE,45,0.0,1.6,41,0.00,,,0.00,WSDL version 420,2013-06-23 18:49:00,
2013-06-23 14:51:00,85.2,58.8,29.06,North,-999,-999.0,-999.0,41,0.00,,,0.00,WSDL version 420,2013-06-23 18:51:00,
2013-06-23 14:53:00,85.4,59.1,29.06,North,-999,-999.0,-999.0,42,0.00,,,0.00,WSDL version 420,2013-06-23 18:53:00,
2013-06-23 14:55:00,85.7,59.4,29.06,SSW,203,0.7,0.0,41,0.00,,,0.00,WSDL version 420,2013-06-23 18:55:00,
2013-06-23 14:57:00,85.8,59.7,29.06,NE,45,0.0,0.0,42,0.00,,,0.00,WSDL version 420,2013-06-23 18:57:00,
2013-06-23 14:59:00,85.6,59.6,29.06,NE,45,0.0,0.0,41,0.00,,,0.00,WSDL version 420,2013-06-23 18:59:00,
2013-06-23 15:03:00,84.8,59.2,29.06,SSW,203,1.3,0.0,41,0.00,,,0.00,WSDL version 420,2013-06-23 19:03:00,
2013-06-23 15:06:00,84.9,59.0,29.06,SSW,203,0.0,0.0,42,0.00,,,0.00,WSDL version 420,2013-06-23 19:06:00,
2013-06-23 15:08:00,85.0,58.9,29.06,North,-999,-999.0,-999.0,41,0.00,,,0.00,WSDL version 420,2013-06-23 19:08:00,
2013-06-23 15:10:00,85.2,58.9,29.06,East,90,0.0,0.0,41,0.00,,,0.00,WSDL version 420,2013-06-23 19:10:00,
2013-06-23 15:12:00,85.3,58.7,29.06,SSW,203,0.0,0.0,41,0.00,,,0.00,WSDL version 420,2013-06-23 19:12:00,
2013-06-23 15:14:00,85.4,58.9,29.06,SSW,203,0.0,0.0,41,0.00,,,0.00,WSDL version 420,2013-06-23 19:14:00,
2013-06-23 15:16:00,85.4,59.0,29.06,North,-999,-999.0,-999.0,41,0.00,,,0.00,WSDL version 420,2013-06-23 19:16:00,
2013-06-23 15:20:00,85.6,59.4,29.06,North,-999,-999.0,-999.0,42,0.00,,,0.00,WSDL version 420,2013-06-23 19:20:00,
2013-06-23 15:22:00,85.6,59.2,29.06,West,270,1.1,0.0,40,0.00,,,0.00,WSDL version 420,2013-06-23 19:22:00,
2013-06-23 15:24:00,85.6,59.2,29.06,North,0,0.0,0.0,41,0.00,,,0.00,WSDL version 420,2013-06-23 19:24:00,
2013-06-23 15:26:00,85.5,59.3,29.06,North,-999,-999.0,-999.0,42,0.00,,,0.00,WSDL version 420,2013-06-23 19:26:00,
2013-06-23 15:30:00,85.3,59.4,29.06,North,-999,-999.0,-999.0,42,0.00,,,0.00,WSDL version 420,2013-06-23 19:30:00,
2013-06-23 15:32:00,85.2,59.3,29.06,North,-999,-999.0,-999.0,41,0.00,,,0.00,WSDL version 420,2013-06-23 19:32:00,
2013-06-23 15:34:00,85.1,58.9,29.06,North,360,0.0,0.0,41,0.00,,,0.00,WSDL version 420,2013-06-23 19:34:00,
2013-06-23 15:36:00,85.1,58.4,29.06,North,-999,-999.0,-999.0,40,0.00,,,0.00,WSDL version 420,2013-06-23 19:36:00,
2013-06-23 15:38:00,85.0,58.1,29.06,North,360,0.0,0.0,40,0.00,,,0.00,WSDL version 420,2013-06-23 19:38:00,
2013-06-23 15:40:00,84.7,57.6,29.06,North,-999,-999.0,-999.0,39,0.00,,,0.00,WSDL version 420,2013-06-23 19:40:00,
2013-06-23 15:44:00,84.2,57.1,29.06,SE,124,0.0,0.0,41,0.00,,,0.00,WSDL version 420,2013-06-23 19:44:00,
2013-06-23 15:46:00,84.1,57.3,29.06,North,-999,-999.0,-999.0,41,0.00,,,0.00,WSDL version 420,2013-06-23 19:46:00,
2013-06-23 15:48:00,84.0,57.7,29.06,West,259,0.4,0.0,41,0.00,,,0.00,WSDL version 420,2013-06-23 19:48:00,
2013-06-23 15:52:00,83.8,57.5,29.03,North,0,0.0,4.9,41,0.00,,,0.00,WSDL version 420,2013-06-23 19:52:00,
2013-06-23 15:54:00,83.6,57.2,29.03,North,-999,-999.0,-999.0,41,0.00,,,0.00,WSDL version 420,2013-06-23 19:54:00,
2013-06-23 15:56:00,83.5,57.2,29.03,North,-999,-999.0,-999.0,41,0.00,,,0.00,WSDL version 420,2013-06-23 19:56:00,
2013-06-23 15:58:00,83.4,57.2,29.03,SSW,203,0.0,4.9,41,0.00,,,0.00,WSDL version 420,2013-06-23 19:58:00,
2013-06-23 16:02:00,83.1,57.5,29.03,North,0,0.0,0.0,42,0.00,,,0.00,WSDL version 420,2013-06-23 20:02:00,
2013-06-23 16:04:00,82.9,57.5,29.03,WNW,293,0.0,0.0,42,0.00,,,0.00,WSDL version 420,2013-06-23 20:04:00,
2013-06-23 16:08:00,82.6,57.4,29.03,WNW,293,0.0,0.0,44,0.00,,,0.00,WSDL version 420,2013-06-23 20:08:00,
2013-06-23 16:10:00,82.4,57.8,29.03,North,0,0.0,0.0,44,0.00,,,0.00,WSDL version 420,2013-06-23 20:10:00,
2013-06-23 16:12:00,82.4,58.3,29.03,North,-999,-999.0,-999.0,44,0.00,,,0.00,WSDL version 420,2013-06-23 20:12:00,
2013-06-23 16:14:00,82.4,58.5,29.03,North,-999,-999.0,-999.0,45,0.00,,,0.00,WSDL version 420,2013-06-23 20:14:00,
2013-06-23 16:18:00,82.4,58.6,29.03,SSW,203,0.0,0.0,44,0.00,,,0.00,WSDL version 420,2013-06-23 20:18:00,
2013-06-23 16:20:00,82.4,58.8,29.03,North,-999,-999.0,-999.0,46,0.00,,,0.00,WSDL version 420,2013-06-23 20:20:00,
2013-06-23 16:22:00,82.4,59.2,29.03,SSW,203,0.0,0.0,46,0.00,,,0.00,WSDL version 420,2013-06-23 20:22:00,
2013-06-23 16:24:00,82.3,59.6,29.03,North,0,0.0,0.0,47,0.00,,,0.00,WSDL version 420,2013-06-23 20:24:00,
2013-06-23 16:28:00,82.2,59.7,29.03,SW,225,0.0,0.0,47,0.00,,,0.00,WSDL version 420,2013-06-23 20:28:00,
2013-06-23 16:30:00,82.2,59.5,29.03,SSW,203,0.0,0.0,46,0.00,,,0.00,WSDL version 420,2013-06-23 20:30:00,
2013-06-23 16:34:00,82.1,59.8,29.03,SSW,203,0.0,0.0,48,0.00,,,0.00,WSDL version 420,2013-06-23 20:34:00,
2013-06-23 16:36:00,82.1,60.0,29.03,SSW,203,0.0,0.0,47,0.00,,,0.00,WSDL version 420,2013-06-23 20:36:00,
2013-06-23 16:40:00,82.0,59.7,29.03,North,-999,-999.0,-999.0,46,0.00,,,0.00,WSDL version 420,2013-06-23 20:40:00,
2013-06-23 16:44:00,82.1,59.3,29.03,North,-999,-999.0,-999.0,46,0.00,,,0.00,WSDL version 420,2013-06-23 20:44:00,
2013-06-23 16:46:00,82.1,59.4,29.03,SSW,203,0.0,0.0,46,0.00,,,0.00,WSDL version 420,2013-06-23 20:46:00,
2013-06-23 16:50:00,82.2,59.5,29.03,North,-999,-999.0,-999.0,46,0.00,,,0.00,WSDL version 420,2013-06-23 20:50:00,
2013-06-23 16:52:00,82.2,59.3,29.03,South,180,0.0,0.0,45,0.00,,,0.00,WSDL version 420,2013-06-23 20:52:00,
2013-06-23 16:54:00,82.2,59.0,29.03,South,180,0.0,0.0,45,0.00,,,0.00,WSDL version 420,2013-06-23 20:54:00,
2013-06-23 16:58:00,82.1,58.7,29.03,SE,135,0.0,0.0,45,0.00,,,0.00,WSDL version 420,2013-06-23 20:58:00,
2013-06-23 17:00:00,82.0,58.6,29.03,North,-999,-999.0,-999.0,45,0.00,,,0.00,WSDL version 420,2013-06-23 21:00:00,
2013-06-23 17:02:00,81.9,58.7,29.03,SE,135,0.0,0.0,46,0.00,,,0.00,WSDL version 420,2013-06-23 21:02:00,
2013-06-23 17:08:00,81.5,59.8,29.03,SE,135,0.0,0.0,48,0.00,,,0.00,WSDL version 420,2013-06-23 21:08:00,
2013-06-23 17:10:00,81.4,60.0,29.03,North,-999,-999.0,-999.0,49,0.00,,,0.00,WSDL version 420,2013-06-23 21:10:00,
2013-06-23 17:12:00,81.2,60.3,29.03,North,-999,-999.0,-999.0,50,0.00,,,0.00,WSDL version 420,2013-06-23 21:12:00,
2013-06-23 17:16:00,81.1,60.8,29.03,SE,135,0.0,0.0,51,0.00,,,0.00,WSDL version 420,2013-06-23 21:16:00,
2013-06-23 17:20:00,80.9,60.9,29.03,SE,135,0.0,0.0,51,0.00,,,0.00,WSDL version 420,2013-06-23 21:20:00,
2013-06-23 17:22:00,80.8,61.0,29.03,SE,135,0.0,0.0,52,0.00,,,0.00,WSDL version 420,2013-06-23 21:22:00,
2013-06-23 17:24:00,80.6,61.2,29.03,SE,135,0.0,0.0,53,0.00,,,0.00,WSDL version 420,2013-06-23 21:24:00,
2013-06-23 17:28:00,80.3,62.0,29.03,North,-999,-999.0,-999.0,54,0.00,,,0.00,WSDL version 420,2013-06-23 21:28:00,
2013-06-23 17:30:00,80.3,62.1,29.03,SE,135,0.0,0.0,54,0.00,,,0.00,WSDL version 420,2013-06-23 21:30:00,
2013-06-23 17:34:00,80.1,62.1,29.03,North,-999,-999.0,-999.0,55,0.00,,,0.00,WSDL version 420,2013-06-23 21:34:00,
2013-06-23 17:36:00,79.9,62.3,29.03,North,-999,-999.0,-999.0,56,0.00,,,0.00,WSDL version 420,2013-06-23 21:36:00,
2013-06-23 17:38:00,79.6,62.2,29.03,North,-999,-999.0,-999.0,56,0.00,,,0.00,WSDL version 420,2013-06-23 21:38:00,
2013-06-23 17:42:00,79.1,62.2,29.03,North,-999,-999.0,-999.0,56,0.00,,,0.00,WSDL version 420,2013-06-23 21:42:00,
2013-06-23 17:44:00,78.8,61.9,29.03,North,-999,-999.0,-999.0,56,0.00,,,0.00,WSDL version 420,2013-06-23 21:44:00,
2013-06-23 17:46:00,78.6,61.7,29.03,North,-999,-999.0,-999.0,57,0.00,,,0.00,WSDL version 420,2013-06-23 21:46:00,
2013-06-23 17:50:00,78.0,61.6,29.03,NNE,23,1.3,1.6,58,0.00,,,0.00,WSDL version 420,2013-06-23 21:50:00,
2013-06-23 17:52:00,77.7,61.6,29.03,North,0,0.0,1.6,58,0.00,,,0.00,WSDL version 420,2013-06-23 21:52:00,
2013-06-23 17:54:00,77.5,61.5,29.03,NNE,23,0.0,1.6,58,0.00,,,0.00,WSDL version 420,2013-06-23 21:54:00,
2013-06-23 18:00:00,77.1,61.7,29.03,North,-999,-999.0,-999.0,60,0.00,,,0.00,WSDL version 420,2013-06-23 22:00:00,
2013-06-23 18:02:00,77.0,61.9,29.03,North,360,0.0,0.0,60,0.00,,,0.00,WSDL version 420,2013-06-23 22:02:00,
2013-06-23 18:04:00,77.0,62.1,29.03,North,360,0.0,0.0,60,0.00,,,0.00,WSDL version 420,2013-06-23 22:04:00,
2013-06-23 18:08:00,77.1,62.3,29.03,North,360,0.0,0.0,60,0.00,,,0.00,WSDL version 420,2013-06-23 22:08:00,
2013-06-23 18:10:00,77.2,62.3,29.03,North,0,0.0,0.0,60,0.00,,,0.00,WSDL version 420,2013-06-23 22:10:00,
2013-06-23 18:12:00,77.2,62.2,29.03,North,360,0.0,0.0,60,0.00,,,0.00,WSDL version 420,2013-06-23 22:12:00,
2013-06-23 18:16:00,77.2,62.5,29.03,North,-999,-999.0,-999.0,61,0.00,,,0.00,WSDL version 420,2013-06-23 22:16:00,
2013-06-23 18:20:00,77.4,62.8,29.03,North,-999,-999.0,-999.0,61,0.00,,,0.00,WSDL version 420,2013-06-23 22:20:00,
2013-06-23 18:22:00,77.4,62.9,29.03,North,360,0.0,0.0,61,0.00,,,0.00,WSDL version 420,2013-06-23 22:22:00,
2013-06-23 18:26:00,77.6,63.3,29.03,North,-999,-999.0,-999.0,62,0.00,,,0.00,WSDL version 420,2013-06-23 22:26:00,
2013-06-23 18:28:00,77.7,63.6,29.03,North,-999,-999.0,-999.0,62,0.00,,,0.00,WSDL version 420,2013-06-23 22:28:00,
2013-06-23 18:30:00,77.7,63.7,29.03,North,-999,-999.0,-999.0,62,0.00,,,0.00,WSDL version 420,2013-06-23 22:30:00,
2013-06-23 18:32:00,77.7,63.8,29.03,North,-999,-999.0,-999.0,63,0.04,,,0.04,WSDL version 420,2013-06-23 22:32:00,
2013-06-23 18:34:00,77.7,63.9,29.03,South,180,0.0,0.0,63,0.04,,,0.04,WSDL version 420,2013-06-23 22:34:00,
2013-06-23 18:38:00,77.4,63.9,29.03,North,-999,-999.0,-999.0,64,0.04,,,0.04,WSDL version 420,2013-06-23 22:38:00,
2013-06-23 18:40:00,77.2,63.8,29.03,North,-999,-999.0,-999.0,63,0.04,,,0.04,WSDL version 420,2013-06-23 22:40:00,
2013-06-23 18:44:00,76.7,63.6,29.03,North,360,0.0,0.0,65,0.08,,,0.08,WSDL version 420,2013-06-23 22:44:00,
2013-06-23 18:48:00,76.3,63.6,29.03,North,-999,-999.0,-999.0,65,0.08,,,0.08,WSDL version 420,2013-06-23 22:48:00,
2013-06-23 18:54:00,76.0,64.1,29.03,North,360,0.0,0.0,67,0.08,,,0.08,WSDL version 420,2013-06-23 22:54:00,
2013-06-23 18:56:00,75.9,64.3,29.03,North,-999,-999.0,-999.0,68,0.08,,,0.08,WSDL version 420,2013-06-23 22:56:00,
2013-06-23 18:58:00,75.9,64.2,29.03,North,-999,-999.0,-999.0,67,0.08,,,0.08,WSDL version 420,2013-06-23 22:58:00,
2013-06-23 19:00:00,75.8,64.1,29.03,North,-999,-999.0,-999.0,67,0.08,,,0.08,WSDL version 420,2013-06-23 23:00:00,
2013-06-23 19:04:00,75.6,64.1,29.03,North,-999,-999.0,-999.0,68,0.08,,,0.08,WSDL version 420,2013-06-23 23:04:00,
2013-06-23 19:06:00,75.6,64.4,29.03,North,-999,-999.0,-999.0,69,0.08,,,0.08,WSDL version 420,2013-06-23 23:06:00,
2013-06-23 19:08:00,75.7,64.6,29.03,South,180,0.0,0.0,69,0.08,,,0.08,WSDL version 420,2013-06-23 23:08:00,
2013-06-23 19:10:00,75.7,64.7,29.03,North,-999,-999.0,-999.0,69,0.08,,,0.08,WSDL version 420,2013-06-23 23:10:00,
2013-06-23 19:12:00,75.7,64.8,29.03,North,-999,-999.0,-999.0,69,0.08,,,0.08,WSDL version 420,2013-06-23 23:12:00,
2013-06-23 19:14:00,75.7,64.9,29.03,North,-999,-999.0,-999.0,69,0.08,,,0.08,WSDL version 420,2013-06-23 23:14:00,
2013-06-23 19:16:00,75.8,64.9,29.03,North,-999,-999.0,-999.0,69,0.08,,,0.08,WSDL version 420,2013-06-23 23:16:00,
2013-06-23 19:22:00,75.9,65.4,29.06,North,-999,-999.0,-999.0,70,0.08,,,0.08,WSDL version 420,2013-06-23 23:22:00,
2013-06-23 19:24:00,75.9,65.4,29.06,North,-999,-999.0,-999.0,70,0.08,,,0.08,WSDL version 420,2013-06-23 23:24:00,
2013-06-23 19:26:00,76.0,65.5,29.06,North,-999,-999.0,-999.0,70,0.08,,,0.08,WSDL version 420,2013-06-23 23:26:00,
2013-06-23 19:32:00,76.1,65.6,29.06,North,-999,-999.0,-999.0,70,0.04,,,0.08,WSDL version 420,2013-06-23 23:32:00,
2013-06-23 19:34:00,76.1,65.6,29.06,North,-999,-999.0,-999.0,70,0.04,,,0.08,WSDL version 420,2013-06-23 23:34:00,
2013-06-23 19:36:00,76.1,65.6,29.06,WNW,293,0.0,0.0,70,0.04,,,0.08,WSDL version 420,2013-06-23 23:36:00,
2013-06-23 19:40:00,76.0,65.5,29.06,WNW,293,0.0,0.0,70,0.04,,,0.08,WSDL version 420,2013-06-23 23:40:00,
2013-06-23 19:44:00,75.7,65.3,29.06,WNW,293,0.0,0.0,70,0.00,,,0.08,WSDL version 420,2013-06-23 23:44:00,
2013-06-23 19:46:00,75.7,65.3,29.06,WNW,293,0.0,0.0,70,0.00,,,0.08,WSDL version 420,2013-06-23 23:46:00,
2013-06-23 19:48:00,75.7,65.3,29.06,North,-999,-999.0,-999.0,70,0.00,,,0.08,WSDL version 420,2013-06-23 23:48:00,
2013-06-23 19:50:00,75.7,65.3,29.06,North,-999,-999.0,-999.0,71,0.00,,,0.08,WSDL version 420,2013-06-23 23:50:00,
2013-06-23 19:54:00,75.7,65.6,29.06,SSW,203,0.0,0.0,71,0.04,,,0.12,WSDL version 420,2013-06-23 23:54:00,
2013-06-23 19:56:00,75.6,65.4,29.06,North,-999,-999.0,-999.0,70,0.04,,,0.12,WSDL version 420,2013-06-23 23:56:00,
2013-06-23 19:58:00,75.4,65.1,29.06,North,-999,-999.0,-999.0,70,0.04,,,0.12,WSDL version 420,2013-06-23 23:58:00,
2013-06-23 20:00:00,75.2,64.8,29.06,North,-999,-999.0,-999.0,71,0.04,,,0.12,WSDL version 420,2013-06-24 00:00:00,
2013-06-23 20:04:00,74.9,64.6,29.06,South,180,0.0,2.5,71,0.08,,,0.16,WSDL version 420,2013-06-24 00:04:00,
2013-06-23 20:08:00,74.7,64.4,29.09,North,-999,-999.0,-999.0,71,0.13,,,0.21,WSDL version 420,2013-06-24 00:08:00,
2013-06-23 20:10:00,74.5,64.4,29.09,North,-999,-999.0,-999.0,71,0.13,,,0.21,WSDL version 420,2013-06-24 00:10:00,
2013-06-23 20:15:00,74.3,64.3,29.09,North,-999,-999.0,-999.0,71,0.17,,,0.25,WSDL version 420,2013-06-24 00:15:00,
2013-06-23 20:37:00,-999.0,-99.9,29.09,North,-999,-999.0,-999.0,-999,-99.99,,,-99.99,WSDL version 420,2013-06-24 00:37:00,
2013-06-23 20:42:00,-999.0,-99.9,29.09,North,-999,-999.0,-999.0,-999,-99.99,,,-99.99,WSDL version 420,2013-06-24 00:42:00,
2013-06-23 20:47:00,-999.0,-99.9,29.09,North,-999,-999.0,-999.0,-999,-99.99,,,-99.99,WSDL version 420,2013-06-24 00:47:00,
2013-06-23 20:55:00,-999.0,-99.9,29.06,North,-999,-999.0,-999.0,-999,-99.99,,,-99.99,WSDL version 420,2013-06-24 00:55:00,
2013-06-23 21:08:00,-999.0,-99.9,29.06,North,-999,-999.0,-999.0,-999,-99.99,,,-99.99,WSDL version 420,2013-06-24 01:08:00,
2013-06-23 21:10:00,-999.0,-99.9,29.06,North,-999,-999.0,-999.0,-999,-99.99,,,-99.99,WSDL version 420,2013-06-24 01:10:00,
2013-06-23 21:27:00,-999.0,-99.9,29.09,North,-999,-999.0,-999.0,-999,-99.99,,,-99.99,WSDL version 420,2013-06-24 01:27:00,
2013-06-23 21:53:00,-999.0,-99.9,29.06,North,-999,-999.0,-999.0,-999,-99.99,,,-99.99,WSDL version 420,2013-06-24 01:53:00,
2013-06-23 21:58:00,-999.0,-99.9,29.06,North,-999,-999.0,-999.0,-999,-99.99,,,-99.99,WSDL version 420,2013-06-24 01:58:00,
2013-06-23 22:15:00,-999.0,-99.9,29.06,North,-999,-999.0,-999.0,-999,-99.99,,,-99.99,WSDL version 420,2013-06-24 02:15:00,
2013-06-23 22:17:00,-999.0,-99.9,29.06,North,-999,-999.0,-999.0,-999,-99.99,,,-99.99,WSDL version 420,2013-06-24 02:17:00,